Regional Weather Roundup
Issued by NWS

Home | Current Version | Previous Version | Text Only | Print | Product List | Glossary On
Versions: 1 2 3 4 5 6 7 8 9 10 11 12 13 14 15 16 17 18 19 20 21 22 23 24 25 26 27 28 29 30 31 32 33 34 35 36 37 38 39 40 41 42 43 44 45 46 47 48 49 50
000
ASUS42 KTBW 220410
RWRFL
FLORIDA REGIONAL WEATHER ROUNDUP
NATIONAL WEATHER SERVICE TAMPA BAY RUSKIN FL
1200 AM EDT MON SEP 22 2014

NOTE: "FAIR" INDICATES FEW OR NO CLOUDS BELOW 12,000 FEET WITH NO
SIGNIFICANT WEATHER AND/OR OBSTRUCTIONS TO VISIBILITY.


FLZ001>010-012>015-112-114-115-220500-
PANHANDLE FLORIDA

CITY           SKY/WX    TMP DP  RH WIND       PRES   REMARKS
PENSACOLA      CLEAR     71  68  90 N3        30.00F
PENSACOLA NAS  CLEAR     69  67  93 CALM      30.00F
MILTON NAS     CLEAR     68  65  90 CALM      30.01F
CRESTVIEW      CLEAR     68  67  96 CALM      30.02F
DUKE FIELD     FAIR      69  69  99 CALM      30.01F
VALPARAISO     CLEAR     72  67  83 CALM      30.01F
MARY ESTHER    CLEAR     70  65  83 CALM      30.00F
TRI COUNTY     FAIR      67  66  97 MISG      30.02F
PANAMA CITY    FAIR      70  67  90 CALM      30.01S
TYNDALL AFB    CLEAR     71  69  96 CALM      30.02S
APALACHICOLA   CLEAR     71  66  84 CALM      30.02S

STATION/POSITION SKY/WX   TEMP    WIND        PRES    WAVE   SWELL
                          AIR SEA DIR/SP/G            HT/PER HT/PER
                          (F)     (DEG/KT/KT) (MB)    (FT/S) (FT/S)
30.1N   87.6W              82 85   80/  4/  6 1016.0F   2/ 5   2/ 5
29.2N   88.2W              81 84   70/ 12/ 14 1015.9F   3/ 6
28.8N   86.0W              81 84   80/ 10/ 12 1015.7R   2/ 5   2/ 6
PANAMA CITY BEAC           81 85  150/  2/  3 1016.2S
CAPE SAN BLAS    NOT AVBL
TOWER C                    79     140/  5/  6 1016.5R
28.5N   84.5W              81 84   70/  8/ 10 1016.2R   2/ 7   2/ 7

$$
FLZ011-016>038-118-127-128-134-139-239-220500-
NORTH FLORIDA

CITY           SKY/WX    TMP DP  RH WIND       PRES   REMARKS
MARIANNA       CLEAR     71  67  87 CALM      30.01F
TALLAHASSEE    CLEAR     67  65  93 CALM      30.03S
PERRY          PTCLDY    68  68 100 CALM      30.04S FOG
CROSS CITY       N/A     71  68  90 CALM      30.03R
LAKE CITY      FAIR      66  63  88 CALM      30.04S
GAINESVILLE    CLEAR     71  65  81 CALM      30.04S
MAYPORT NAS    CLEAR     71  67  87 SW5       30.02S
JACKSONVILLE   PTCLDY    68  65  90 CALM      30.02S
JAX NAS        CLEAR     81  64  56 S7        30.03S
JAX CRAIG      CLEAR     70  65  84 CALM      30.03R
JAX CECIL      CLEAR     64  64 100 CALM      30.03S
ST AUGUSTINE   PTCLDY    70  66  87 SW3       30.04R

STATION/POSITION SKY/WX   TEMP    WIND        PRES    WAVE   SWELL
                          AIR SEA DIR/SP/G            HT/PER HT/PER
                          (F)     (DEG/KT/KT) (MB)    (FT/S) (FT/S)
SHELL POINT                76     320/  2/  3   N/A
KEATON BEACH               72      50/  2/  3 1017.0R
CEDAR KEY                  78     300/  3/  3 1017.1R
FERNANDINA                 75 81  180/  4/  5 1015.9F
30.7N   81.3W                 83                N/A     2/10   2/11
MAYPORT                    74 82  200/  5/  6   N/A
31.4N   80.9W              82 83  210/ 16/ 19 1015.5F   2/ 3   2/10
ST AUGUSTINE               79     200/  5/  6 1017.8R

$$
FLZ040-043>046-052-053-057-058-063-144-220500-
INTERIOR CENTRAL FLORIDA

CITY           SKY/WX    TMP DP  RH WIND       PRES   REMARKS
OCALA          PTCLDY    73  66  78 E3        30.04S
THE VILLAGES     N/A     79  73  83 CALM      29.95R
LEESBURG       CLOUDY    79  73  82 SE6       30.05R
SANFORD        MOCLDY    76  71  85 CALM      30.04R
ORLANDO EXEC   CLOUDY    78  72  81 S6        30.04S
ORLANDO INTL   CLOUDY    76  74  93 S3        30.05R
WINTER HAVEN   CLOUDY    78  73  84 SE6       30.05R
LAKELAND       MOCLDY   N/A N/A N/A SE5       30.05S
BARTOW         CLOUDY    75  75 100 SE5       30.05S
OKEECHOBEE       N/A     72  72 100 MISG      30.05

$$
FLZ041-047-054-059-064-141-147-220500-
EAST CENTRAL FLORIDA

CITY           SKY/WX    TMP DP  RH WIND       PRES   REMARKS
DAYTONA BEACH  MOCLDY    73  71  93 CALM      30.04S
DELAND         MOCLDY    73  70  88 CALM      30.05F
JFK SPACE CTR  CLOUDY    73  72  95 W1        30.03S
CAPE CANAVERAL CLOUDY    73  70  89 S2        30.02F
PATRICK AFB    CLOUDY    77  75  92 S10       30.04S
MELBOURNE      CLOUDY    75  73  93 S6        30.04S
VERO BEACH     PTCLDY    73  69  87 SW7       30.04S
FT PIERCE      CLEAR     73  71  93 SW5       30.04S
STUART         CLEAR     73  72  94 SW3       30.05S

STATION/POSITION SKY/WX   TEMP    WIND        PRES    WAVE   SWELL
                          AIR SEA DIR/SP/G            HT/PER HT/PER
                          (F)     (DEG/KT/KT) (MB)    (FT/S) (FT/S)
28.5N   80.2W              81 84  150/  6/  8 1017.2R
28.9N   78.5W              81 85  170/  6/ 10 1016.9F   5/ 9   5/ 9
TRIDENT PIER               76 84  100/  3/  3 1016.5S
28.4N   80.5W                 83                N/A     1/11
27.6N   80.2W                 83                N/A     2/10   2/11

$$
FLZ050-056-061-142-242-148-248-149-249-151-251-155-255-
160-260-220500-
WEST CENTRAL FLORIDA

CITY           SKY/WX    TMP DP  RH WIND       PRES   REMARKS
CRYSTAL RIVER  MOCLDY    75  72  88 CALM      30.03S
INVERNESS      CLOUDY    77  63  61 E3        30.04R
BROOKSVILLE    CLOUDY    77  75  93 CALM      30.04R
ZEPHYRHILLS    CLOUDY    73  73 100 CALM      30.05S
CLEARWATER     MOCLDY    78  75  90 CALM      30.02S
TAMPA INTL     MOCLDY    80  72  76 CALM      30.03S
TAMPA EXEC     MOCLDY    77  73  88 CALM      30.04S
PLANT CITY     MOCLDY    79  79 100 CALM      30.06S
MACDILL AFB    PTCLDY    76  73  91 N2        30.03S
ST PETERSBURG  MOCLDY    81  73  76 CALM      30.01S
SARASOTA       MOCLDY    78  73  84 S7        30.01S
VENICE           N/A    N/A N/A N/A MISG        N/A

STATION/POSITION SKY/WX   TEMP    WIND        PRES    WAVE   SWELL
                          AIR SEA DIR/SP/G            HT/PER HT/PER
                          (F)     (DEG/KT/KT) (MB)    (FT/S) (FT/S)
CEDAR KEY                  78     300/  3/  3 1017.1R
28.5N   84.5W              81 84   70/  8/ 10 1016.2R   2/ 7   2/ 7
27.3N   84.3W                 85                N/A     2/ 5
CLEARWATER BEACH NOT AVBL
MIDDLE TAMPA BAY           82     160/  3/  5 1016.9F
VENICE                     80 86  100/  5/  6 1016.1F

$$
FLZ066-069-070-075>078-162-262-165-265-220500-
SOUTHWEST FLORIDA AND KEYS

CITY           SKY/WX    TMP DP  RH WIND       PRES   REMARKS
PUNTA GORDA    MOCLDY    77  73  87 CALM      30.04F
FT MYERS       MOCLDY    75  74  96 SE3       30.02F
SOUTHWEST INTL PTCLDY    75  62  64 SE5       30.03F
NAPLES         MOCLDY    79  74  84 E3        30.02F
MARCO ISLAND   CLEAR     77  73  88 E5        30.02F
MARATHON       PTCLDY    83  77  82 E5        30.02S
KEY WEST NAS   PTCLDY    82  75  79 E6        30.01F
KEY WEST INTL  PTCLDY    83  76  79 E5        30.02F

STATION/POSITION SKY/WX   TEMP    WIND        PRES    WAVE   SWELL
                          AIR SEA DIR/SP/G            HT/PER HT/PER
                          (F)     (DEG/KT/KT) (MB)    (FT/S) (FT/S)
VENICE                     80 86  100/  5/  6 1016.1F
NAPLES                     79 89  100/  3/  5 1017.1F
DRY TORTUGAS               81      30/  7/  8 1016.1F
NW FL BAY                  84      30/  4/  5 1017.2F
SAND KEY                   84      80/  7/  8 1016.4F
SOMBRERO KEY               84      80/  7/  8 1017.3F
LONG KEY                   84 86  100/  6/  7 1017.5F
MOLASSES REEF              84 86   90/  5/  6 1016.8S

$$
FLZ067-068-071>074-168-172>174-220500-
SOUTHEAST FLORIDA

CITY           SKY/WX    TMP DP  RH WIND       PRES   REMARKS
W PALM BEACH   CLOUDY    76  74  93 S3        30.02F
FT LAUDER-EXEC MOCLDY    74  32  21 CALM      30.03F
FT LAUDERDALE  MOCLDY    75  73  93 CALM      30.03F
POMPANO BEACH  MOCLDY    76  73  91 NW5       30.03F
PEMBROKE PINES MOCLDY    75  74  96 CALM      30.04F
OPA LOCKA      MOCLDY    76  73  91 CALM      30.03F
MIAMI          CLOUDY    77  71  82 CALM      30.03F
WEST KENDALL   CLOUDY    79  74  84 CALM      30.03F
HOMESTEAD      CLOUDY    78  75  88 CALM      30.04S

STATION/POSITION SKY/WX   TEMP    WIND        PRES    WAVE   SWELL
                          AIR SEA DIR/SP/G            HT/PER HT/PER
                          (F)     (DEG/KT/KT) (MB)    (FT/S) (FT/S)
PORT EVERGLADES            78     320/  4/  5 1016.8
VIRGINIA KEY               78 85   20/  2/  3   N/A
LAKE WORTH                 77 85  210/  5/  7 1016.7F
FOWEY ROCKS                83 85   60/  5/  6 1017.1F
SETTLEMENT POINT           81     280/  2/  2 1017.6F

$$



USA.gov is the U.S. government's official web portal to all federal, state and local government web resources and services.